Time,TemperatureF,DewpointF,PressureIn,WindDirection,WindDirectionDegrees,WindSpeedMPH,WindSpeedGustMPH,Humidity,HourlyPrecipIn,Conditions,Clouds,dailyrainin,SoftwareType,DateUTC
2013-02-07 00:13:00,34.7,27.0,30.28,North,355,0.0,2.0,72,0.00,,,0.00,weatherlink.com 1.10,2013-02-07 05:13:00,
2013-02-07 00:28:00,34.6,26.0,30.28,North,5,0.0,3.0,71,0.00,,,0.00,weatherlink.com 1.10,2013-02-07 05:28:00,
2013-02-07 00:43:00,35.2,26.0,30.28,North,5,0.0,3.0,70,0.00,,,0.00,weatherlink.com 1.10,2013-02-07 05:43:00,
2013-02-07 00:58:00,35.0,26.0,30.28,North,5,0.0,1.0,71,0.00,,,0.00,weatherlink.com 1.10,2013-02-07 05:58:00,
2013-02-07 01:13:00,34.6,26.0,30.28,North,5,1.0,1.0,70,0.00,,,0.00,weatherlink.com 1.10,2013-02-07 06:13:00,
2013-02-07 01:28:00,34.0,26.0,30.29,North,5,0.0,1.0,72,0.00,,,0.00,weatherlink.com 1.10,2013-02-07 06:28:00,
2013-02-07 01:43:00,33.6,25.0,30.29,North,9,0.0,4.0,72,0.00,,,0.00,weatherlink.com 1.10,2013-02-07 06:43:00,
2013-02-07 01:58:00,33.5,26.0,30.30,NNW,340,0.0,2.0,73,0.00,,,0.00,weatherlink.com 1.10,2013-02-07 06:58:00,
2013-02-07 02:13:00,33.3,26.0,30.29,SW,223,0.0,3.0,74,0.00,,,0.00,weatherlink.com 1.10,2013-02-07 07:13:00,
2013-02-07 02:28:00,33.4,25.0,30.29,NNE,12,1.0,4.0,72,0.00,,,0.00,weatherlink.com 1.10,2013-02-07 07:28:00,
2013-02-07 02:43:00,33.8,26.0,30.30,East,83,0.0,3.0,73,0.00,,,0.00,weatherlink.com 1.10,2013-02-07 07:43:00,
2013-02-07 02:58:00,33.7,26.0,30.31,NNW,340,0.0,2.0,73,0.00,,,0.00,weatherlink.com 1.10,2013-02-07 07:58:00,
2013-02-07 03:13:00,33.4,26.0,30.32,NNW,339,0.0,4.0,74,0.00,,,0.00,weatherlink.com 1.10,2013-02-07 08:13:00,
2013-02-07 03:28:00,33.1,26.0,30.31,NNE,23,0.0,3.0,76,0.00,,,0.00,weatherlink.com 1.10,2013-02-07 08:28:00,
2013-02-07 03:43:00,32.8,26.0,30.32,NNE,17,3.0,4.0,77,0.00,,,0.00,weatherlink.com 1.10,2013-02-07 08:43:00,
2013-02-07 03:58:00,32.8,27.0,30.31,North,5,0.0,3.0,78,0.00,,,0.00,weatherlink.com 1.10,2013-02-07 08:58:00,
2013-02-07 04:13:00,33.1,28.0,30.32,NE,42,3.0,4.0,82,0.00,,,0.00,weatherlink.com 1.10,2013-02-07 09:13:00,
2013-02-07 04:28:00,33.8,29.0,30.33,NE,46,3.0,5.0,82,0.00,,,0.00,weatherlink.com 1.10,2013-02-07 09:28:00,
2013-02-07 04:43:00,34.3,29.0,30.33,NW,315,1.0,5.0,82,0.00,,,0.00,weatherlink.com 1.10,2013-02-07 09:43:00,
2013-02-07 04:58:00,34.6,30.0,30.33,NNE,17,5.0,7.0,82,0.00,,,0.00,weatherlink.com 1.10,2013-02-07 09:58:00,
2013-02-07 05:13:00,34.9,30.0,30.34,NW,326,2.0,5.0,82,0.00,,,0.00,weatherlink.com 1.10,2013-02-07 10:13:00,
2013-02-07 05:28:00,35.0,30.0,30.35,North,5,3.0,10.0,81,0.00,,,0.00,weatherlink.com 1.10,2013-02-07 10:28:00,
2013-02-07 05:43:00,35.0,29.0,30.36,NNE,26,2.0,6.0,80,0.00,,,0.00,weatherlink.com 1.10,2013-02-07 10:43:00,
2013-02-07 05:59:00,35.1,29.0,30.36,NW,325,1.0,7.0,78,0.00,,,0.00,weatherlink.com 1.10,2013-02-07 10:59:00,
2013-02-07 06:14:00,35.2,29.0,30.35,NE,42,2.0,10.0,77,0.00,,,0.00,weatherlink.com 1.10,2013-02-07 11:14:00,
2013-02-07 06:29:00,35.3,28.0,30.36,NNE,20,1.0,7.0,76,0.00,,,0.00,weatherlink.com 1.10,2013-02-07 11:29:00,
2013-02-07 06:59:00,35.5,29.0,30.35,North,360,4.0,6.0,76,0.00,,,0.00,weatherlink.com 1.10,2013-02-07 11:59:00,
2013-02-07 07:14:00,35.4,29.0,30.35,NE,37,1.0,5.0,77,0.00,,,0.00,weatherlink.com 1.10,2013-02-07 12:14:00,
2013-02-07 07:29:00,35.3,29.0,30.35,North,9,0.0,6.0,77,0.00,,,0.00,weatherlink.com 1.10,2013-02-07 12:29:00,
2013-02-07 07:44:00,35.3,29.0,30.35,NNW,340,2.0,6.0,77,0.00,,,0.00,weatherlink.com 1.10,2013-02-07 12:44:00,
2013-02-07 07:59:00,35.4,29.0,30.36,NNE,33,6.0,9.0,78,0.00,,,0.00,weatherlink.com 1.10,2013-02-07 12:59:00,
2013-02-07 08:14:00,35.3,29.0,30.36,North,355,0.0,7.0,79,0.00,,,0.00,weatherlink.com 1.10,2013-02-07 13:14:00,
2013-02-07 08:29:00,35.5,30.0,30.36,NE,42,1.0,7.0,79,0.00,,,0.00,weatherlink.com 1.10,2013-02-07 13:29:00,
2013-02-07 08:44:00,35.5,30.0,30.35,NNW,328,3.0,7.0,80,0.00,,,0.00,weatherlink.com 1.10,2013-02-07 13:44:00,
2013-02-07 08:59:00,35.9,30.0,30.36,NNE,18,3.0,6.0,79,0.00,,,0.00,weatherlink.com 1.10,2013-02-07 13:59:00,
2013-02-07 09:14:00,36.4,30.0,30.36,North,5,3.0,8.0,78,0.00,,,0.00,weatherlink.com 1.10,2013-02-07 14:14:00,
2013-02-07 09:29:00,36.8,30.0,30.37,North,355,3.0,6.0,77,0.00,,,0.00,weatherlink.com 1.10,2013-02-07 14:29:00,
2013-02-07 09:44:00,37.1,30.0,30.36,SE,124,3.0,7.0,76,0.00,,,0.00,weatherlink.com 1.10,2013-02-07 14:44:00,
2013-02-07 09:59:00,37.4,30.0,30.36,NNE,26,6.0,9.0,75,0.00,,,0.00,weatherlink.com 1.10,2013-02-07 14:59:00,
2013-02-07 10:14:00,37.8,30.0,30.35,East,90,5.0,5.0,74,0.00,,,0.00,weatherlink.com 1.10,2013-02-07 15:14:00,
2013-02-07 10:29:00,38.4,30.0,30.34,ESE,116,3.0,6.0,72,0.00,,,0.00,weatherlink.com 1.10,2013-02-07 15:29:00,
2013-02-07 10:44:00,38.8,30.0,30.34,North,355,0.0,4.0,71,0.00,,,0.00,weatherlink.com 1.10,2013-02-07 15:44:00,
2013-02-07 10:59:00,39.2,30.0,30.35,NE,42,3.0,6.0,70,0.00,,,0.00,weatherlink.com 1.10,2013-02-07 15:59:00,
2013-02-07 11:14:00,39.7,30.0,30.34,ENE,70,2.0,5.0,69,0.00,,,0.00,weatherlink.com 1.10,2013-02-07 16:14:00,
2013-02-07 11:29:00,40.0,31.0,30.33,NE,36,2.0,6.0,69,0.00,,,0.00,weatherlink.com 1.10,2013-02-07 16:29:00,
2013-02-07 11:44:00,40.0,31.0,30.32,NNW,342,4.0,11.0,69,0.00,,,0.00,weatherlink.com 1.10,2013-02-07 16:44:00,
2013-02-07 11:59:00,40.6,31.0,30.31,East,99,1.0,11.0,68,0.00,,,0.00,weatherlink.com 1.10,2013-02-07 16:59:00,
2013-02-07 12:14:00,41.4,31.0,30.31,North,350,3.0,7.0,67,0.00,,,0.00,weatherlink.com 1.10,2013-02-07 17:14:00,
2013-02-07 12:29:00,41.8,31.0,30.29,NNE,32,3.0,11.0,66,0.00,,,0.00,weatherlink.com 1.10,2013-02-07 17:29:00,
2013-02-07 12:44:00,42.0,31.0,30.29,NNE,17,5.0,7.0,66,0.00,,,0.00,weatherlink.com 1.10,2013-02-07 17:44:00,
2013-02-07 12:59:00,42.5,31.0,30.28,NW,322,3.0,6.0,65,0.00,,,0.00,weatherlink.com 1.10,2013-02-07 17:59:00,
2013-02-07 13:14:00,42.6,31.0,30.27,North,355,5.0,8.0,64,0.00,,,0.00,weatherlink.com 1.10,2013-02-07 18:14:00,
2013-02-07 13:29:00,42.2,31.0,30.26,NNE,20,4.0,8.0,65,0.00,,,0.00,weatherlink.com 1.10,2013-02-07 18:29:00,
2013-02-07 13:44:00,42.1,31.0,30.25,NNE,28,6.0,8.0,66,0.00,,,0.00,weatherlink.com 1.10,2013-02-07 18:44:00,
2013-02-07 13:59:00,42.1,31.0,30.26,ENE,65,0.0,6.0,66,0.00,,,0.00,weatherlink.com 1.10,2013-02-07 18:59:00,
2013-02-07 14:14:00,42.2,31.0,30.25,NE,49,4.0,6.0,66,0.00,,,0.00,weatherlink.com 1.10,2013-02-07 19:14:00,
2013-02-07 14:29:00,41.9,31.0,30.25,NW,325,5.0,7.0,66,0.00,,,0.00,weatherlink.com 1.10,2013-02-07 19:29:00,
2013-02-07 14:44:00,42.0,31.0,30.24,ESE,123,1.0,7.0,66,0.00,,,0.00,weatherlink.com 1.10,2013-02-07 19:44:00,
2013-02-07 14:59:00,42.2,31.0,30.24,North,360,1.0,6.0,66,0.00,,,0.00,weatherlink.com 1.10,2013-02-07 19:59:00,
2013-02-07 15:14:00,42.0,31.0,30.24,NNE,17,1.0,5.0,66,0.00,,,0.00,weatherlink.com 1.10,2013-02-07 20:14:00,
2013-02-07 15:29:00,41.8,32.0,30.24,ENE,59,1.0,9.0,68,0.00,,,0.00,weatherlink.com 1.10,2013-02-07 20:29:00,
2013-02-07 15:44:00,41.6,32.0,30.23,NE,40,3.0,5.0,70,0.00,,,0.00,weatherlink.com 1.10,2013-02-07 20:44:00,
2013-02-07 15:59:00,41.1,32.0,30.23,NE,46,0.0,5.0,71,0.00,,,0.00,weatherlink.com 1.10,2013-02-07 20:59:00,
2013-02-07 16:14:00,40.7,33.0,30.23,NE,39,4.0,5.0,73,0.00,,,0.00,weatherlink.com 1.10,2013-02-07 21:14:00,
2013-02-07 16:29:00,40.2,33.0,30.23,NNW,338,3.0,4.0,76,0.00,,,0.00,weatherlink.com 1.10,2013-02-07 21:29:00,
2013-02-07 16:45:00,39.8,34.0,30.23,North,5,1.0,4.0,81,0.01,,,0.01,weatherlink.com 1.10,2013-02-07 21:45:00,
2013-02-07 17:00:00,39.1,34.0,30.23,NNW,348,0.0,5.0,82,0.01,,,0.01,weatherlink.com 1.10,2013-02-07 22:00:00,
2013-02-07 17:15:00,38.7,34.0,30.22,NE,40,1.0,3.0,84,0.01,,,0.01,weatherlink.com 1.10,2013-02-07 22:15:00,
2013-02-07 17:30:00,38.3,35.0,30.22,North,355,0.0,4.0,86,0.02,,,0.02,weatherlink.com 1.10,2013-02-07 22:30:00,
2013-02-07 17:45:00,37.9,34.0,30.22,NNW,332,0.0,4.0,87,0.01,,,0.02,weatherlink.com 1.10,2013-02-07 22:45:00,
2013-02-07 18:00:00,37.5,34.0,30.21,North,11,1.0,5.0,87,0.02,,,0.03,weatherlink.com 1.10,2013-02-07 23:00:00,
2013-02-07 18:15:00,37.2,34.0,30.21,North,355,0.0,4.0,88,0.02,,,0.03,weatherlink.com 1.10,2013-02-07 23:15:00,
2013-02-07 18:30:00,37.1,34.0,30.21,NNE,13,2.0,3.0,89,0.01,,,0.03,weatherlink.com 1.10,2013-02-07 23:30:00,
2013-02-07 18:45:00,36.9,34.0,30.20,North,5,2.0,5.0,90,0.01,,,0.03,weatherlink.com 1.10,2013-02-07 23:45:00,
2013-02-07 19:00:00,36.8,34.0,30.20,North,5,2.0,6.0,89,0.00,,,0.03,weatherlink.com 1.10,2013-02-08 00:00:00,
2013-02-07 19:15:00,36.6,34.0,30.19,NE,53,7.0,9.0,89,0.01,,,0.04,weatherlink.com 1.10,2013-02-08 00:15:00,
2013-02-07 19:30:00,36.4,34.0,30.19,NW,319,3.0,7.0,90,0.01,,,0.04,weatherlink.com 1.10,2013-02-08 00:30:00,
2013-02-07 19:45:00,36.3,34.0,30.19,WNW,299,1.0,6.0,90,0.01,,,0.04,weatherlink.com 1.10,2013-02-08 00:45:00,
2013-02-07 20:00:00,36.1,34.0,30.18,NE,36,4.0,7.0,91,0.02,,,0.05,weatherlink.com 1.10,2013-02-08 01:00:00,
2013-02-07 20:15:00,36.0,34.0,30.18,NW,321,0.0,6.0,91,0.02,,,0.06,weatherlink.com 1.10,2013-02-08 01:15:00,
2013-02-07 20:30:00,35.9,34.0,30.17,North,5,3.0,7.0,91,0.03,,,0.07,weatherlink.com 1.10,2013-02-08 01:30:00,
2013-02-07 20:45:00,35.8,34.0,30.17,NE,36,0.0,7.0,91,0.03,,,0.07,weatherlink.com 1.10,2013-02-08 01:45:00,
2013-02-07 21:00:00,35.8,34.0,30.16,North,9,1.0,7.0,92,0.03,,,0.08,weatherlink.com 1.10,2013-02-08 02:00:00,
2013-02-07 21:15:00,35.7,34.0,30.16,NNW,337,2.0,9.0,92,0.04,,,0.10,weatherlink.com 1.10,2013-02-08 02:15:00,
2013-02-07 21:30:00,35.6,34.0,30.15,West,281,3.0,8.0,92,0.04,,,0.11,weatherlink.com 1.10,2013-02-08 02:30:00,
2013-02-07 21:45:00,35.5,34.0,30.15,NNE,22,4.0,7.0,93,0.06,,,0.13,weatherlink.com 1.10,2013-02-08 02:45:00,
2013-02-07 22:00:00,35.5,34.0,30.14,NNW,329,2.0,8.0,93,0.08,,,0.16,weatherlink.com 1.10,2013-02-08 03:00:00,
2013-02-07 22:15:00,35.4,34.0,30.13,NNE,13,2.0,11.0,93,0.08,,,0.18,weatherlink.com 1.10,2013-02-08 03:15:00,
2013-02-07 22:30:00,35.3,34.0,30.12,NNE,23,2.0,10.0,93,0.09,,,0.21,weatherlink.com 1.10,2013-02-08 03:30:00,
2013-02-07 22:45:00,35.2,33.0,30.12,North,11,6.0,8.0,93,0.10,,,0.24,weatherlink.com 1.10,2013-02-08 03:45:00,
2013-02-07 23:00:00,35.0,33.0,30.11,NE,38,0.0,7.0,93,0.11,,,0.27,weatherlink.com 1.10,2013-02-08 04:00:00,
2013-02-07 23:15:00,35.0,34.0,30.11,North,355,1.0,4.0,94,0.13,,,0.31,weatherlink.com 1.10,2013-02-08 04:15:00,
2013-02-07 23:30:00,34.8,33.0,30.11,NNE,13,0.0,6.0,94,0.15,,,0.36,weatherlink.com 1.10,2013-02-08 04:30:00,
2013-02-07 23:45:00,34.8,34.0,30.10,WNW,298,2.0,6.0,95,0.16,,,0.40,weatherlink.com 1.10,2013-02-08 04:45:00,